Location: Hope
(40.9110°N, 74.9680°W)
Time: 23:26:00
(UTC-04:00)

Hubble Space Telescope - Visible Passes

Search period start: 29 September 2020 00:00
Search period end: 09 October 2020 00:00
Orbit: 536 x 540 km, 28.5° (Epoch: 29 September)

Date Brightness Start Highest point End Pass type
(mag) Time Alt. Az. Time Alt. Az. Time Alt. Az.
29 Sep 3.3 04:45:39 11° SSE 04:45:39 11° SSE 04:46:18 10° SE visible
29 Sep 3.0 06:22:46 10° SW 06:24:56 14° S 06:27:06 10° SSE visible
30 Sep 3.5 04:35:35 10° SE 04:35:35 10° SE 04:35:42 10° SE visible
30 Sep 3.0 06:12:03 10° SW 06:14:05 13° S 06:16:06 10° SSE visible
01 Oct 3.0 06:01:27 10° SW 06:03:13 12° S 06:04:59 10° SSE visible
02 Oct 3.1 05:51:00 10° SSW 05:52:21 11° SSW 05:53:42 10° S visible
03 Oct 3.1 05:41:10 10° SSW 05:41:28 10° SSW 05:41:47 10° S visible
